User: anonymous   Login
Location: Nairn
(57.5833°N, 3.8667°W)
Time: 13:46:16
(UTC+00:00)
Language:

Cosmos 1025 Rocket - Orbit

View from above orbital plane
View from above orbital plane
View from above satellite
View from above satellite

Ground track
Ground track

The orbit data is extracted from the following two-line orbital elements,

1 10974U 78067B   20294.71729618 +.00000090 +00000-0 +72843-5 0  9995
2 10974 082.4798 092.2052 0015922 253.8173 106.1292 14.87364462289127
Epoch (UTC): 20 October 2020 17:12:54
Eccentricity: 0.0015922
inclination: 82.4798°
perigee height: 595 km
apogee height: 617 km
right ascension of ascending node: 92.2052°
argument of perigee: 253.8173°
revolutions per day: 14.87364462
mean anomaly at epoch: 106.1292°
orbit number at epoch: 28912

The dashed part of the orbit path shows where the satellite is in the earth's shadow,  

DLR